Location: Clyde
(45.1830°S, 169.3170°E)
Time: 05:52:24
(UTC+12:00)

Cosmos 1689 Rocket - Pass Details

Date: 14 May 2021
Orbit: 344 x 354 km, 97.5° (Epoch: 20 June)

Event Time Altitude Azimuth Distance (km) Brightness Sun altitude
Rises 18:36:47 0° 29° (NNE) 2,175 5.7 -12.7°
Reaches altitude 10° 18:38:45 10° 37° (NE) 1,343 4.6 -13.1°
Maximum altitude 18:41:27 39° 107° (ESE) 567 2.4 -13.5°
Drops below altitude 10° 18:44:12 10° 178° (S) 1,373 4.7 -14.0°
Sets 18:46:14 0° 185° (S) 2,234 5.9 -14.4°
